Regional Weather Roundup
Issued by NWS Green Bay, WI

Home | Current Version | Previous Version | Text Only | Print | Product List | Glossary On
Versions: 1 2 3 4 5 6 7 8 9 10 11 12 13 14 15 16 17 18 19 20 21 22 23 24 25 26 27 28 29 30 31 32 33 34 35 36 37 38 39 40 41 42 43 44 45 46 47 48 49 50
000
ASUS43 KGRB 011211
RWRGRB

NORTH-CENTRAL AND NORTHEAST WISCONSIN REGIONAL WEATHER ROUNDUP
NATIONAL WEATHER SERVICE GREEN BAY WI
700 AM CDT TUE SEP 01 2015

WIZ005-009-010>012-018-019-011300-
NORTH CENTRAL WISCONSIN

CITY           SKY/WX    TMP DP  RH WIND       PRES   REMARKS
IRONWOOD       MOCLDY    72  70  94 S7        29.90F
MANITOWISH WTR CLOUDY    69  69 100 SW5       29.98S FOG
ARBOR VITAE    MOCLDY    71  70  96 S5        29.99S FOG
EAGLE RIVER    CLOUDY    69  69 100 CALM      30.00S FOG
LAND O LAKES   CLOUDY    69  68  99 CALM      30.01S FOG
RHINELANDER    CLOUDY    69  67  93 SW6       30.01S FOG
PHILLIPS       CLOUDY    69  69 100 S3        29.97S FOG
ANTIGO         PTCLDY    67  66  99 S5        30.02S FOG
TOMAHAWK       CLOUDY    67  66  97 CALM      30.01R FOG
MERRILL        CLOUDY    63  63 100 CALM      30.00S FOG
$$

WIZ013-073-011300-
NORTHEAST WISCONSIN

CITY           SKY/WX    TMP DP  RH WIND       PRES   REMARKS
IRON MOUNTAIN  CLEAR     63  61  93 S3        29.98S FOG
MARINETTE      CLEAR     66  63  88 CALM      29.99R
OCONTO         CLOUDY    60  60 100 CALM      29.99S
$$

WIZ017-030-035>037-045-011300-
CENTRAL WISCONSIN

CITY           SKY/WX    TMP DP  RH WIND       PRES   REMARKS
MEDFORD        FOG       63  63 100 CALM      30.00S VSB<1/4
WAUSAU         CLEAR     65  64  97 SE3       29.99R FOG
MOSINEE        NOT AVBL
MARSHFIELD     FOG       65  62  90 CALM      29.99S VSB 1/4
WISC RAPIDS    CLEAR     67  64  90 S3        30.01R FOG
STEVENS POINT  CLEAR     65  65  98 CALM      30.01R FOG
WAUPACA        CLEAR     65  64  97 CALM      30.00S FOG
SHAWANO        MOCLDY    67  66  95 CALM      29.99F FOG
CLINTONVILLE   FOG       63  63 100 CALM      30.00R VSB 3/4
WAUTOMA        FOG       62  62 100 CALM      30.01S VSB<1/4
$$

WIZ038-039-048-051-011300-
FOX VALLEY

CITY           SKY/WX    TMP DP  RH WIND       PRES   REMARKS
NWS GREEN BAY  NOT AVBL
APPLETON       MOCLDY    64  64 100 SW6       29.99S FOG
OSHKOSH        PTCLDY    69  67  93 S9        30.00S FOG
FOND DU LAC    CLEAR     69  67  93 S6        30.01S FOG
$$

WIZ022-050-052-011300-
EAST CENTRAL WISCONSIN

CITY           SKY/WX    TMP DP  RH WIND       PRES   REMARKS
EPHRAIM        CLOUDY    64  64  97 CALM      30.00S FOG
STURGEON BAY   CLEAR     66  64  94 S6        30.03R
MANITOWOC      CLEAR     55  54  96 MISG      30.02S FOG
SHEBOYGAN      FOG       63  63 100 S5        30.03R VSB 1
$$

LMZ563-521-522-541>543-011300-
LAKESHORE

STATION/POSITION TIME  TEMP    WIND        PRES    VSBY  WAVE
                       AIR SEA DIR/SP/G                  HT/PER
                 (UTC) (F)     (DEG/KT/KT) (MB)    (MI)  (FT/S)
SHEBOYGAN LKSHOR 1200   62     190/  6/  7 1016.8R
KEWAUNEE LKSHORE 1100   50     170/  1/  2 1015.1R
NORTHPORT PIER   1100   64     170/  3/  6 1015.6R
N MID LAKE BUOY  1150   64 65  200/ 12/ 14 1015.8R         2/ 4
S GREEN BAY BUOY 1200   67 63  180/  6/  8 1017.1R
CHAMBERS ISLAND  1100   67     180/  3/  6 1015.6R
MENOMINEE LKSHOR 1100   66     190/  3/  4 1014.4R
$$


USA.gov is the U.S. government's official web portal to all federal, state and local government web resources and services.